TimeCDT,TemperatureF,Dew PointF,Humidity,Sea Level PressureIn,VisibilityMPH,Wind Direction,Wind SpeedMPH,Gust SpeedMPH,PrecipitationIn,Events,Conditions,WindDirDegrees,DateUTC
12:55 AM,37.9,19.0,47,29.84,10.0,SW,11.5,-,N/A,,Clear,220,2012-10-08 05:55:00
1:55 AM,36.0,19.0,50,29.83,10.0,SSW,6.9,-,N/A,,Clear,210,2012-10-08 06:55:00
2:55 AM,37.0,19.0,48,29.82,10.0,SSW,9.2,-,N/A,,Clear,210,2012-10-08 07:55:00
3:55 AM,37.0,21.0,52,29.80,10.0,SSW,10.4,-,N/A,,Clear,210,2012-10-08 08:55:00
4:55 AM,37.9,21.9,53,29.78,10.0,SSW,11.5,-,N/A,,Clear,210,2012-10-08 09:55:00
5:55 AM,37.9,21.9,53,29.76,10.0,SW,10.4,-,N/A,,Partly Cloudy,220,2012-10-08 10:55:00
6:55 AM,37.0,21.9,54,29.75,10.0,SSW,9.2,-,N/A,,Partly Cloudy,200,2012-10-08 11:55:00
7:55 AM,37.0,23.0,57,29.76,10.0,South,6.9,-,N/A,,Scattered Clouds,190,2012-10-08 12:55:00
8:55 AM,37.9,24.1,57,29.75,10.0,South,9.2,-,N/A,,Mostly Cloudy,190,2012-10-08 13:55:00
9:55 AM,42.1,24.1,49,29.73,10.0,South,8.1,-,N/A,,Overcast,180,2012-10-08 14:55:00
10:55 AM,42.1,25.0,51,29.70,10.0,South,10.4,-,N/A,,Overcast,170,2012-10-08 15:55:00
11:55 AM,44.1,26.1,49,29.68,10.0,SE,11.5,-,N/A,,Overcast,140,2012-10-08 16:55:00
12:55 PM,45.0,28.0,52,29.65,10.0,South,11.5,-,0.00,Rain,Light Rain,180,2012-10-08 17:55:00
1:55 PM,46.9,28.0,48,29.62,10.0,South,10.4,-,0.00,,Overcast,170,2012-10-08 18:55:00
2:55 PM,46.4,33.8,62,29.56,10.0,SSE,11.5,-,N/A,Rain,Light Rain,150,2012-10-08 19:55:00
3:55 PM,42.1,37.0,82,29.60,10.0,SSE,6.9,-,0.02,Rain,Light Rain,160,2012-10-08 20:55:00
4:55 PM,44.1,39.0,82,29.59,7.0,SSW,6.9,-,0.06,Rain,Light Rain,200,2012-10-08 21:55:00
5:55 PM,44.1,39.9,85,29.58,10.0,South,6.9,-,0.01,,Overcast,180,2012-10-08 22:55:00
6:48 PM,44.6,39.2,81,29.56,10.0,SW,10.4,-,N/A,,Overcast,220,2012-10-08 23:48:00
6:55 PM,45.0,39.9,82,29.60,10.0,SW,12.7,-,N/A,,Overcast,230,2012-10-08 23:55:00
7:21 PM,46.4,41.0,81,29.56,10.0,WSW,12.7,-,N/A,,Overcast,240,2012-10-09 00:21:00
7:47 PM,46.4,42.8,87,29.57,10.0,West,12.7,-,N/A,,Overcast,260,2012-10-09 00:47:00
7:55 PM,46.9,42.1,83,29.61,10.0,West,12.7,-,N/A,,Overcast,260,2012-10-09 00:55:00
8:55 PM,46.9,43.0,86,29.62,10.0,West,15.0,-,0.00,Rain,Light Rain,280,2012-10-09 01:55:00
9:07 PM,46.4,42.8,87,29.59,10.0,WNW,16.1,28.8,0.00,,Overcast,290,2012-10-09 02:07:00
9:32 PM,44.6,39.2,81,29.60,10.0,West,15.0,26.5,0.00,,Overcast,280,2012-10-09 02:32:00
9:55 PM,45.0,39.0,80,29.64,10.0,West,16.1,24.2,0.00,,Overcast,280,2012-10-09 02:55:00
10:55 PM,43.0,36.0,76,29.65,10.0,WNW,13.8,25.3,N/A,,Mostly Cloudy,290,2012-10-09 03:55:00
11:18 PM,42.8,37.4,81,29.62,10.0,West,10.4,-,N/A,,Scattered Clouds,280,2012-10-09 04:18:00
11:55 PM,41.0,37.0,86,29.65,10.0,West,9.2,-,N/A,,Clear,270,2012-10-09 04:55:00